STARLINK-32340, 61008

Orbit data source: Space-Track

STARLINK-32340, 61008 is a payload satellite owned by SpaceX/Seattle (US) in LEO that was launched on Thu, 05 Sep 2024 UTC via an FALCON 9 launch vehicle from the Air Force Eastern Test Range (AFETR). Payload-class satellites include a variety of spacecraft equipped with specific instruments for various scientific and technological missions. These include communications satellites like Starlink; space stations such as the ISS; scientific satellites like the Hubble; Earth observation satellites from companies like Planet Labs, Umbra, and HawkEye 360; GPS; miniature CubeSats for education and research; and military/defense satellites.

Loading next visibility...
Identifier
61008, 2024-158U
Orbit
LEO
Country
Flag of USUS
Related business
Manufacturer
SpaceX/Seattle
Mission
Operational Commercial Communications
Bus & Motor
STARLINK V2M, Unknown motor
Mass
730 kg wet, ~700 kg dry
Launch date (UTC)
2024-09-05 (1 year ago)
Launch vehicle
FALCON 9
Launch site
Air Force Eastern Test Range (AFETR)
Object type
Payload
Rocket body
Debris
Shape & HBR
Box + 2 Pan, 17.7 m
Radar Cross Section
33.884 m², Large (>1 m²)

Expand to show TLE details & history
Last TLE update: 1 day ago

TLE from 1 day ago
0 STARLINK-32340
1 61008U 24158U   25286.56926773 -.00000064  00000-0  99664-5 0  9993
2 61008  53.1612  29.0177 0001134  69.5127 290.5995 15.30191199 63052
Epoch: 2025-10-13T13:39Z
TLE epoch observation values (Epoch: 2025-10-13T13:39:44.731Z)
Latitude
-0.00008°
Longitude
161.7111°
Altitude
475.868 km
Speed
7.629 km/s
True Right ascension
01h 56m 04s
True Declination
0° 00' 00"
Sunlit
Object was in full shadow at epoch
Visualization orbit readout
Latitude
Unknown
Longitude
Unknown
Altitude
Unknown
Speed
Unknown
Apparent Right ascension
Unknown
Apparent Declination
Unknown
Sunlit
N/A
Visualization observer readout
Local Sidereal Time
09:31:36
Azimuth
Unknown
Elevation
Unknown
Doppler factor
Unknown
Orbital elements
Apogee altitude
476.275 km
Perigee altitude
474.72 km
Semi-major axis
6,853.635 km
Eccentricity
0.00011
Inclination
53.1612°
RAAN
29.0177°
Arg. of periapsis
69.5127°
True anomaly
290.58734°
Mean anomaly
290.5995°
Eccentric anomaly
290.59342°
Mean motion
3.82527 °/min
Orbital period
94.11 mins
BSTAR
0.0000099664
Loading maneuver chart data...
Computing Atmospheric mass density...
Loading historical data...
Loading historical data...
Loading historical data...
Loading historical data...
Loading historical data...
Loading historical data...
Loading historical data...

Documentation

Showing up to 5 results
|